START_TIME,STEP,MOV.,M15,t_acc.,M20,t_acc.
1979-07-27 15:00:43.150 ,1,0,0.,24.0,0.,24.0
1979-07-27 15:01:07.150 ,2,1,0.,24.0,0.,24.0
1979-07-27 15:01:31.150 ,2,0,0.,24.0,0.,24.0
1979-07-27 15:01:55.150 ,3,1,0.,24.0,0.,24.0
1979-07-27 15:02:19.150 ,3,0,0.,24.0,0.,24.0
1979-07-27 15:02:43.150 ,4,1,0.,24.0,0.,24.0
1979-07-27 15:03:07.150 ,4,0,0.,24.0,0.,24.0
1979-07-27 15:03:31.150 ,5,1,0.,24.0,0.,24.0
1979-07-27 15:03:55.150 ,5,0,0.,24.0,0.,24.0
1979-07-27 15:04:19.150 ,6,1,0.,24.0,0.,24.0
1979-07-27 15:04:43.150 ,6,0,0.,24.0,0.,24.0
1979-07-27 15:05:07.150 ,7,1,0.,24.0,0.,24.0
1979-07-27 15:05:31.150 ,7,0,0.,24.0,0.,24.0
1979-07-27 15:05:55.150 ,7,1,0.,24.0,0.,24.0
1979-07-27 15:06:19.150 ,7,0,0.,24.0,0.,24.0
1979-07-27 15:06:43.150 ,6,1,0.,24.0,0.,24.0
1979-07-27 15:07:07.150 ,6,0,0.,24.0,0.,24.0
1979-07-27 15:07:31.150 ,5,1,0.,24.0,0.,24.0
1979-07-27 15:07:55.150 ,5,0,0.,24.0,0.,24.0
1979-07-27 15:08:19.150 ,4,1,0.,24.0,0.,24.0
1979-07-27 15:08:43.150 ,4,0,0.,24.0,0.,24.0
1979-07-27 15:09:07.150 ,3,1,0.,24.0,0.,24.0
1979-07-27 15:09:31.150 ,3,0,0.,24.0,0.,24.0
1979-07-27 15:09:55.150 ,2,1,0.,24.0,0.,24.0
1979-07-27 15:10:19.150 ,2,0,0.,24.0,0.,24.0
1979-07-27 15:10:43.150 ,1,1,0.,24.0,0.,24.0
1979-07-27 15:11:07.150 ,1,0,0.,24.0,0.,24.0
1979-07-27 15:11:31.150 ,0,1,0.,24.0,0.,24.0
1979-07-27 15:11:55.150 ,0,0,0.,24.0,0.,24.0
1979-07-27 15:12:19.150 ,0,1,0.,24.0,0.,24.0
1979-07-27 15:12:43.150 ,0,0,0.,24.0,0.,24.0
1979-07-27 15:13:07.150 ,1,1,0.,24.0,0.,24.0
1979-07-27 15:13:31.150 ,1,0,0.,24.0,0.,24.0
1979-07-27 15:13:55.150 ,2,1,0.,24.0,0.,24.0
1979-07-27 15:14:19.150 ,2,0,0.,24.0,0.,24.0
1979-07-27 15:14:43.150 ,3,1,0.,24.0,0.,24.0
1979-07-27 15:15:07.150 ,3,0,0.,24.0,0.,24.0
1979-07-27 15:15:31.150 ,4,1,0.,24.0,0.,24.0
1979-07-27 15:15:55.150 ,4,0,0.,24.0,0.,24.0
1979-07-27 15:16:19.150 ,5,1,0.,24.0,0.,24.0
1979-07-27 15:16:43.150 ,5,0,0.,24.0,0.,24.0
1979-07-27 15:17:07.150 ,6,1,0.,24.0,0.,24.0
1979-07-27 15:17:31.150 ,6,0,0.,24.0,0.,24.0
1979-07-27 15:17:55.150 ,7,1,0.,24.0,0.,24.0
1979-07-27 15:18:19.150 ,7,0,0.,24.0,0.,24.0
1979-07-27 15:18:43.150 ,7,1,0.,24.0,0.,24.0
1979-07-27 15:19:07.150 ,7,0,0.,24.0,0.,24.0
1979-07-27 15:19:31.150 ,6,1,0.,24.0,0.,24.0
1979-07-27 15:19:55.150 ,6,0,0.,24.0,0.,24.0
1979-07-27 15:20:19.150 ,5,1,0.,24.0,0.,24.0
1979-07-27 15:20:43.150 ,5,0,0.,24.0,0.,24.0
1979-07-27 15:21:07.150 ,4,1,0.,24.0,0.,24.0
1979-07-27 15:21:31.150 ,4,0,0.,24.0,0.,24.0
1979-07-27 15:21:55.150 ,3,1,0.,24.0,0.,24.0
1979-07-27 15:22:19.150 ,3,0,0.,24.0,0.,24.0
1979-07-27 15:22:43.150 ,2,1,0.,24.0,0.,24.0
1979-07-27 15:23:07.150 ,2,0,0.,24.0,0.,24.0
1979-07-27 15:23:31.150 ,1,1,0.,24.0,0.,24.0
1979-07-27 15:23:55.150 ,1,0,0.,24.0,0.,24.0
1979-07-27 15:24:19.150 ,0,1,0.,24.0,0.,24.0
1979-07-27 15:24:43.150 ,0,0,0.,24.0,0.,24.0
1979-07-27 15:25:07.150 ,0,1,0.,24.0,0.,24.0
1979-07-27 15:25:31.150 ,0,0,0.,24.0,0.,24.0
1979-07-27 15:25:55.150 ,1,1,0.,24.0,0.,24.0
1979-07-27 15:26:19.150 ,1,0,0.,24.0,0.,24.0
1979-07-27 15:26:43.150 ,2,1,0.,24.0,0.,24.0
1979-07-27 15:27:07.150 ,2,0,0.,24.0,0.,24.0
1979-07-27 15:27:31.150 ,3,1,0.,24.0,0.,24.0
1979-07-27 15:27:55.150 ,3,0,0.,24.0,0.,24.0
1979-07-27 15:28:19.150 ,4,1,0.,24.0,0.,24.0
1979-07-27 15:28:43.150 ,4,0,0.,24.0,0.,24.0
1979-07-27 15:29:07.150 ,5,1,0.,24.0,0.,24.0
1979-07-27 15:29:31.150 ,5,0,0.,24.0,0.,24.0
1979-07-27 15:29:55.150 ,6,1,0.,24.0,0.,24.0
1979-07-27 15:30:19.150 ,6,0,0.,24.0,0.,24.0
1979-07-27 15:30:43.150 ,7,0,0.,24.0,0.,24.0
1979-07-27 15:31:07.150 ,7,0,0.,24.0,0.,24.0
1979-07-27 15:31:31.150 ,3,1,0.,24.0,0.,24.0
1979-07-27 15:31:55.150 ,0,1,0.,24.0,0.,24.0
1979-07-27 15:32:19.150 ,4,1,0.,24.0,0.,24.0
1979-07-27 15:32:43.150 ,7,1,0.,24.0,0.,24.0
1979-07-27 15:33:07.150 ,3,1,0.,24.0,0.,24.0
1979-07-27 15:33:31.150 ,0,1,0.,24.0,0.,24.0
1979-07-27 15:33:55.150 ,4,1,0.,24.0,0.,24.0
1979-07-27 15:34:19.150 ,7,1,0.,24.0,0.,24.0
1979-07-27 15:34:43.150 ,3,1,0.,24.0,0.,24.0
1979-07-27 15:35:07.150 ,0,1,0.,24.0,0.,24.0
1979-07-27 15:35:31.150 ,4,1,0.,24.0,0.,24.0
1979-07-27 15:35:55.150 ,7,1,0.,24.0,0.,24.0
1979-07-27 15:36:19.150 ,3,1,0.,24.0,0.,24.0
1979-07-27 15:36:43.150 ,0,1,0.,24.0,0.,24.0
1979-07-27 15:37:07.150 ,4,1,0.,24.0,0.,24.0
1979-07-27 15:37:31.150 ,7,1,0.,24.0,0.,24.0
1979-07-27 15:37:55.150 ,3,1,0.,24.0,0.,24.0
1979-07-27 15:38:19.150 ,0,1,0.,24.0,0.,24.0
1979-07-27 15:38:43.150 ,4,1,0.,24.0,0.,24.0
1979-07-27 15:39:07.150 ,7,1,0.,24.0,0.,24.0
1979-07-27 15:39:31.150 ,3,1,0.,24.0,0.,24.0
1979-07-27 15:39:55.150 ,0,1,0.,24.0,0.,24.0
1979-07-27 15:40:19.150 ,4,1,0.,24.0,0.,24.0
1979-07-27 15:40:43.150 ,7,1,0.,24.0,0.,24.0
1979-07-27 15:41:07.150 ,3,1,0.,24.0,0.,24.0
1979-07-27 15:41:31.150 ,0,1,0.,24.0,0.,24.0
1979-07-27 15:41:55.150 ,0,0,0.,24.0,0.,24.0
1979-07-27 15:42:19.150 ,0,0,0.,24.0,0.,24.0
1979-07-27 15:42:43.150 ,5,1,0.,24.0,0.,24.0
1979-07-27 15:43:07.150 ,5,0,0.,24.0,0.,24.0
1979-07-27 15:43:31.150 ,4,1,0.,24.0,0.,24.0
1979-07-27 15:43:55.150 ,4,0,0.,24.0,0.,24.0
1979-07-27 15:44:19.150 ,3,1,0.,24.0,0.,24.0
1979-07-27 15:44:43.150 ,3,0,0.,24.0,0.,24.0
1979-07-27 15:45:07.150 ,2,1,0.,24.0,0.,24.0
1979-07-27 15:45:31.150 ,2,0,0.,24.0,0.,24.0
1979-07-27 15:45:55.150 ,1,1,0.,24.0,0.,24.0
1979-07-27 15:46:19.150 ,1,0,0.,24.0,0.,24.0
1979-07-27 15:46:43.150 ,0,1,0.,24.0,0.,24.0
1979-07-27 15:47:07.150 ,0,0,0.,24.0,0.,24.0
1979-07-27 15:47:31.150 ,0,1,0.,24.0,0.,24.0
1979-07-27 15:47:55.150 ,0,0,0.,24.0,0.,24.0
1979-07-27 15:48:19.150 ,1,1,0.,24.0,0.,24.0
1979-07-27 15:48:43.150 ,1,0,0.,24.0,0.,24.0
1979-07-27 15:49:07.150 ,2,1,0.,24.0,0.,24.0
1979-07-27 15:49:31.150 ,2,0,0.,24.0,0.,24.0
1979-07-27 15:49:55.150 ,3,1,0.,24.0,0.,24.0
1979-07-27 15:50:19.150 ,3,0,0.,24.0,0.,24.0
1979-07-27 15:50:43.150 ,4,1,0.,24.0,0.,24.0
1979-07-27 15:51:07.150 ,4,0,0.,24.0,0.,24.0
1979-07-27 15:51:31.150 ,5,1,0.,24.0,0.,24.0
1979-07-27 15:51:55.150 ,5,0,0.,24.0,0.,24.0
1979-07-27 15:52:19.150 ,6,1,0.,24.0,0.,24.0
1979-07-27 15:52:43.150 ,6,0,0.,24.0,0.,24.0
1979-07-27 15:53:07.150 ,7,1,0.,24.0,0.,24.0
1979-07-27 15:53:31.150 ,7,0,0.,24.0,0.,24.0
1979-07-27 15:53:55.150 ,7,1,0.,24.0,0.,24.0
1979-07-27 15:54:19.150 ,7,0,0.,24.0,0.,24.0
1979-07-27 15:54:43.150 ,6,1,0.,24.0,0.,24.0
1979-07-27 15:55:07.150 ,6,0,0.,24.0,0.,24.0
1979-07-27 15:55:31.150 ,5,1,0.,24.0,0.,24.0
1979-07-27 15:55:55.150 ,5,0,0.,24.0,0.,24.0
1979-07-27 15:56:19.150 ,4,1,0.,24.0,0.,24.0
1979-07-27 15:56:43.150 ,4,0,0.,24.0,0.,24.0
1979-07-27 15:57:07.150 ,3,1,0.,24.0,0.,24.0
1979-07-27 15:57:31.150 ,3,0,0.,24.0,0.,24.0
1979-07-27 15:57:55.150 ,2,1,0.,24.0,0.,24.0
1979-07-27 15:58:19.150 ,2,0,0.,24.0,0.,24.0
1979-07-27 15:58:43.150 ,1,1,0.,24.0,0.,24.0
1979-07-27 15:59:07.150 ,1,0,0.,24.0,0.,24.0
1979-07-27 15:59:31.150 ,0,1,0.,24.0,0.,24.0
1979-07-27 15:59:55.150 ,0,0,0.,24.0,0.,24.0
1979-07-27 16:00:19.150 ,0,1,0.,24.0,0.,24.0
1979-07-27 16:00:43.150 ,0,0,0.,24.0,0.,24.0
1979-07-27 16:01:07.150 ,1,1,0.,24.0,0.,24.0
1979-07-27 16:01:31.150 ,1,0,0.,24.0,0.,24.0
1979-07-27 16:01:55.150 ,2,1,0.,24.0,0.,24.0
1979-07-27 16:02:19.150 ,2,0,0.,24.0,0.,24.0
1979-07-27 16:02:43.150 ,3,1,0.,24.0,0.,24.0
1979-07-27 16:03:07.150 ,3,0,0.,24.0,0.,24.0
1979-07-27 16:03:31.150 ,4,1,0.,24.0,0.,24.0
1979-07-27 16:03:55.150 ,4,0,0.,24.0,0.,24.0
1979-07-27 16:04:19.150 ,5,1,0.,24.0,0.,24.0
1979-07-27 16:04:43.150 ,5,0,0.,24.0,0.,24.0
1979-07-27 16:05:07.150 ,6,1,0.,24.0,0.,24.0
1979-07-27 16:05:31.150 ,6,0,0.,24.0,0.,24.0
1979-07-27 16:05:55.150 ,7,1,0.,24.0,0.,24.0
1979-07-27 16:06:19.150 ,7,0,0.,24.0,0.,24.0
1979-07-27 16:06:43.150 ,7,1,0.,24.0,0.,24.0
1979-07-27 16:07:07.150 ,7,0,0.,24.0,0.,24.0
1979-07-27 16:07:31.150 ,6,1,0.,24.0,0.,24.0
1979-07-27 16:07:55.150 ,6,0,0.,24.0,0.,24.0
1979-07-27 16:08:19.150 ,5,1,0.,24.0,0.,24.0
1979-07-27 16:08:43.150 ,5,0,0.,24.0,0.,24.0
1979-07-27 16:09:07.150 ,4,1,0.,24.0,0.,24.0
1979-07-27 16:09:31.150 ,4,0,0.,24.0,0.,24.0
1979-07-27 16:09:55.150 ,3,1,0.,24.0,0.,24.0
1979-07-27 16:10:19.150 ,3,0,0.,24.0,0.,24.0
1979-07-27 16:10:43.150 ,2,1,0.,24.0,0.,24.0
1979-07-27 16:11:07.150 ,2,0,0.,24.0,0.,24.0
1979-07-27 16:11:31.150 ,1,1,0.,24.0,0.,24.0
1979-07-27 16:11:55.150 ,1,0,0.,24.0,0.,24.0
1979-07-27 16:12:19.150 ,0,1,0.,24.0,0.,24.0
1979-07-27 16:12:43.150 ,0,0,0.,24.0,0.,24.0
1979-07-27 16:13:07.150 ,0,1,0.,24.0,0.,24.0
1979-07-27 16:13:31.150 ,0,0,0.,24.0,0.,24.0
1979-07-27 16:13:55.150 ,1,1,0.,24.0,0.,24.0
1979-07-27 16:14:19.150 ,1,0,0.,24.0,0.,24.0
1979-07-27 16:14:43.150 ,2,1,0.,24.0,0.,24.0
1979-07-27 16:15:07.150 ,2,0,0.,24.0,0.,24.0
1979-07-27 16:15:31.150 ,3,1,0.,24.0,0.,24.0
1979-07-27 16:15:55.150 ,3,0,0.,24.0,0.,24.0
1979-07-27 16:16:19.150 ,4,1,0.,24.0,0.,24.0
1979-07-27 16:16:43.150 ,4,0,0.,24.0,0.,24.0
1979-07-27 16:17:07.150 ,5,1,0.,24.0,0.,24.0
1979-07-27 16:17:31.150 ,5,0,0.,24.0,0.,24.0
1979-07-27 16:17:55.150 ,6,1,0.,24.0,0.,24.0
1979-07-27 16:18:19.150 ,6,0,0.,24.0,0.,24.0
1979-07-27 16:18:43.150 ,7,0,0.,24.0,0.,24.0
1979-07-27 16:19:07.150 ,7,0,0.,24.0,0.,24.0
1979-07-27 16:19:31.150 ,3,1,0.,24.0,0.,24.0
1979-07-27 16:19:55.150 ,0,1,0.,24.0,0.,24.0
1979-07-27 16:20:19.150 ,4,1,0.,24.0,0.,24.0
1979-07-27 16:20:43.150 ,7,1,0.,24.0,0.,24.0
1979-07-27 16:21:07.150 ,3,1,0.,24.0,0.,24.0
1979-07-27 16:21:31.150 ,0,1,0.,24.0,0.,24.0
1979-07-27 16:21:55.150 ,4,1,0.,24.0,0.,24.0
1979-07-27 16:22:19.150 ,7,1,0.,24.0,0.,24.0
1979-07-27 16:22:43.150 ,3,1,0.,24.0,0.,24.0
1979-07-27 16:23:07.150 ,0,1,0.,24.0,0.,24.0
1979-07-27 16:23:31.150 ,4,1,0.,24.0,0.,24.0
1979-07-27 16:23:55.150 ,7,1,0.,24.0,0.,24.0
1979-07-27 16:24:19.150 ,3,1,0.,24.0,0.,24.0
1979-07-27 16:24:43.150 ,0,1,0.,24.0,0.,24.0
1979-07-27 16:25:07.150 ,4,1,0.,24.0,0.,24.0
1979-07-27 16:25:31.150 ,7,1,0.,24.0,0.,24.0
1979-07-27 16:25:55.150 ,3,1,0.,24.0,0.,24.0
1979-07-27 16:26:19.150 ,0,1,0.,24.0,0.,24.0
1979-07-27 16:26:43.150 ,4,1,0.,24.0,0.,24.0
1979-07-27 16:27:07.150 ,7,1,0.,24.0,0.,24.0
1979-07-27 16:27:31.150 ,3,1,0.,24.0,0.,24.0
1979-07-27 16:27:55.150 ,0,1,0.,24.0,0.,24.0
1979-07-27 16:28:19.150 ,4,1,0.,24.0,0.,24.0
1979-07-27 16:28:43.150 ,7,1,0.,24.0,0.,24.0
1979-07-27 16:29:07.150 ,3,1,0.,24.0,0.,24.0
1979-07-27 16:29:31.150 ,0,1,0.,24.0,0.,24.0
1979-07-27 16:29:55.150 ,0,0,0.,24.0,0.,24.0
1979-07-27 16:30:19.150 ,0,0,0.,24.0,0.,24.0
1979-07-27 16:30:43.150 ,5,1,0.,24.0,0.,24.0
1979-07-27 16:31:07.150 ,5,0,0.,24.0,0.,24.0
1979-07-27 16:31:31.150 ,4,1,0.,24.0,0.,24.0
1979-07-27 16:31:55.150 ,4,0,0.,24.0,0.,24.0
1979-07-27 16:32:19.150 ,3,1,0.,24.0,0.,24.0
1979-07-27 16:32:43.150 ,3,0,0.,24.0,0.,24.0
1979-07-27 16:33:07.150 ,2,1,0.,24.0,0.,24.0
1979-07-27 16:33:31.150 ,2,0,0.,24.0,0.,24.0
1979-07-27 16:33:55.150 ,1,1,0.,24.0,0.,24.0
1979-07-27 16:34:19.150 ,1,0,0.,24.0,0.,24.0
1979-07-27 16:34:43.150 ,0,1,0.,24.0,0.,24.0
1979-07-27 16:35:07.150 ,0,0,0.,24.0,0.,24.0
1979-07-27 16:35:31.150 ,0,1,0.,24.0,0.,24.0
1979-07-27 16:35:55.150 ,0,0,0.,24.0,0.,24.0
1979-07-27 16:36:19.150 ,1,1,0.,24.0,0.,24.0
1979-07-27 16:36:43.150 ,1,0,0.,24.0,0.,24.0
1979-07-27 16:37:07.150 ,2,1,0.,24.0,0.,24.0
1979-07-27 16:37:31.150 ,2,0,0.,24.0,0.,24.0
1979-07-27 16:37:55.150 ,3,1,0.,24.0,0.,24.0
1979-07-27 16:38:19.150 ,3,0,0.,24.0,0.,24.0
1979-07-27 16:38:43.150 ,4,1,0.,24.0,0.,24.0
1979-07-27 16:39:07.150 ,4,0,0.,24.0,0.,24.0
1979-07-27 16:39:31.150 ,5,1,0.,24.0,0.,24.0
1979-07-27 16:39:55.150 ,5,0,0.,24.0,0.,24.0
1979-07-27 16:40:19.150 ,6,1,0.,24.0,0.,24.0
1979-07-27 16:40:43.150 ,6,0,0.,24.0,0.,24.0
1979-07-27 16:41:07.150 ,7,1,0.,24.0,0.,24.0
1979-07-27 16:41:31.150 ,7,0,0.,24.0,0.,24.0
1979-07-27 16:41:55.150 ,7,1,0.,24.0,0.,24.0
1979-07-27 16:42:19.150 ,7,0,0.,24.0,0.,24.0
1979-07-27 16:42:43.140 ,6,1,0.,24.0,0.,24.0
1979-07-27 16:43:07.140 ,6,0,0.,24.0,0.,24.0
1979-07-27 16:43:31.140 ,5,1,0.,24.0,0.,24.0
1979-07-27 16:43:55.140 ,5,0,0.,24.0,0.,24.0
1979-07-27 16:44:19.140 ,4,1,0.,24.0,0.,24.0
1979-07-27 16:44:43.140 ,4,0,0.,24.0,0.,24.0
1979-07-27 16:45:07.140 ,3,1,0.,24.0,0.,24.0
1979-07-27 16:45:31.140 ,3,0,0.,24.0,0.,24.0
1979-07-27 16:45:55.140 ,2,1,0.,24.0,0.,24.0
1979-07-27 16:46:19.140 ,2,0,0.,24.0,0.,24.0
1979-07-27 16:46:43.140 ,1,1,0.,24.0,0.,24.0
1979-07-27 16:47:07.140 ,1,0,0.,24.0,0.,24.0
1979-07-27 16:47:31.140 ,0,1,0.,24.0,0.,24.0
1979-07-27 16:47:55.140 ,0,0,0.,24.0,0.,24.0
1979-07-27 16:48:19.140 ,0,1,0.,24.0,0.,24.0
1979-07-27 16:48:43.140 ,0,0,0.,24.0,0.,24.0
1979-07-27 16:49:07.140 ,1,1,0.,24.0,0.,24.0
1979-07-27 16:49:31.140 ,1,0,0.,24.0,0.,24.0
1979-07-27 16:49:55.140 ,2,1,0.,24.0,0.,24.0
1979-07-27 16:50:19.140 ,2,0,0.,24.0,0.,24.0
1979-07-27 16:50:43.140 ,3,1,0.,24.0,0.,24.0
1979-07-27 16:51:07.140 ,3,0,0.,24.0,0.,24.0
1979-07-27 16:51:31.140 ,4,1,0.,24.0,0.,24.0
1979-07-27 16:51:55.140 ,4,0,0.,24.0,0.,24.0
1979-07-27 16:52:19.140 ,5,1,0.,24.0,0.,24.0
1979-07-27 16:52:43.140 ,5,0,0.,24.0,0.,24.0
1979-07-27 16:53:07.140 ,6,1,0.,24.0,0.,24.0
1979-07-27 16:53:31.140 ,6,0,0.,24.0,0.,24.0
1979-07-27 16:53:55.140 ,7,1,0.,24.0,0.,24.0
1979-07-27 16:54:19.140 ,7,0,0.,24.0,0.,24.0
1979-07-27 16:54:43.140 ,7,1,0.,24.0,0.,24.0
1979-07-27 16:55:07.140 ,7,0,0.,24.0,0.,24.0
1979-07-27 16:55:31.140 ,6,1,0.,24.0,0.,24.0
1979-07-27 16:55:55.140 ,6,0,0.,24.0,0.,24.0
1979-07-27 16:56:19.140 ,5,1,0.,24.0,0.,24.0
1979-07-27 16:56:43.140 ,5,0,0.,24.0,0.,24.0
1979-07-27 16:57:07.140 ,4,1,0.,24.0,0.,24.0
1979-07-27 16:57:31.140 ,4,0,0.,24.0,0.,24.0
1979-07-27 16:57:55.140 ,3,1,0.,24.0,0.,24.0
1979-07-27 16:58:19.140 ,3,0,0.,24.0,0.,24.0
1979-07-27 16:58:43.140 ,2,1,0.,24.0,0.,24.0
1979-07-27 16:59:07.140 ,2,0,0.,24.0,0.,24.0
1979-07-27 16:59:31.140 ,1,1,0.,24.0,0.,24.0
1979-07-27 16:59:55.140 ,1,0,0.,24.0,0.,24.0
1979-07-27 17:00:19.140 ,0,1,0.,24.0,0.,24.0
1979-07-27 17:00:43.140 ,0,0,0.,24.0,0.,24.0
1979-07-27 17:01:07.140 ,0,1,0.,24.0,0.,24.0
1979-07-27 17:01:31.140 ,0,0,0.,24.0,0.,24.0
1979-07-27 17:01:55.140 ,1,1,0.,24.0,0.,24.0
1979-07-27 17:02:19.140 ,1,0,0.,24.0,0.,24.0
1979-07-27 17:02:43.140 ,2,1,0.,24.0,0.,24.0
1979-07-27 17:03:07.140 ,2,0,0.,24.0,0.,24.0
1979-07-27 17:03:31.140 ,3,1,0.,24.0,0.,24.0
1979-07-27 17:03:55.140 ,3,0,0.,24.0,0.,24.0
1979-07-27 17:04:19.140 ,4,1,0.,24.0,0.,24.0
1979-07-27 17:04:43.140 ,4,0,0.,24.0,0.,24.0
1979-07-27 17:05:07.140 ,5,1,0.,24.0,0.,24.0
1979-07-27 17:05:31.140 ,5,0,0.,24.0,0.,24.0
1979-07-27 17:05:55.140 ,6,1,0.,24.0,0.,24.0
1979-07-27 17:06:19.140 ,6,0,0.,24.0,0.,24.0
1979-07-27 17:06:43.140 ,7,0,0.,24.0,0.,24.0
1979-07-27 17:07:07.140 ,0,0,0.,24.0,0.,24.0
1979-07-27 17:18:26.340 ,7,0,0.,24.0,0.,24.0
1979-07-27 17:18:43.140 ,7,1,0.,24.0,0.,24.0
1979-07-27 17:19:07.140 ,7,0,0.,24.0,0.,24.0
1979-07-27 17:19:31.140 ,4,1,0.,24.0,0.,24.0
1979-07-27 17:19:55.140 ,4,0,0.,24.0,0.,24.0
1979-07-27 17:20:19.140 ,3,1,0.,24.0,0.,24.0
1979-07-27 17:20:43.140 ,3,0,0.,24.0,0.,24.0
1979-07-27 17:21:07.140 ,2,1,0.,24.0,0.,24.0
1979-07-27 17:21:31.140 ,2,0,0.,24.0,0.,24.0
1979-07-27 17:21:55.140 ,1,1,0.,24.0,0.,24.0
1979-07-27 17:22:19.140 ,1,0,0.,24.0,0.,24.0
1979-07-27 17:22:43.140 ,0,1,0.,24.0,0.,24.0
1979-07-27 17:23:07.140 ,0,0,0.,24.0,0.,24.0
1979-07-27 17:23:31.140 ,0,1,0.,24.0,0.,24.0
1979-07-27 17:23:55.140 ,0,0,0.,24.0,0.,24.0
1979-07-27 17:24:19.140 ,1,1,0.,24.0,0.,24.0
1979-07-27 17:24:43.140 ,1,0,0.,24.0,0.,24.0
1979-07-27 17:25:07.140 ,2,1,0.,24.0,0.,24.0
1979-07-27 17:25:31.140 ,2,0,0.,24.0,0.,24.0
1979-07-27 17:25:55.140 ,3,1,0.,24.0,0.,24.0
1979-07-27 17:26:19.140 ,3,0,0.,24.0,0.,24.0
1979-07-27 17:26:43.140 ,4,1,0.,24.0,0.,24.0
1979-07-27 17:27:07.140 ,4,0,0.,24.0,0.,24.0
1979-07-27 17:27:31.140 ,5,1,0.,24.0,0.,24.0
1979-07-27 17:27:55.140 ,5,0,0.,24.0,0.,24.0
1979-07-27 17:28:19.140 ,6,1,0.,24.0,0.,24.0
1979-07-27 17:28:43.140 ,6,0,0.,24.0,0.,24.0
1979-07-27 17:29:07.140 ,7,1,0.,24.0,0.,24.0
1979-07-27 17:29:31.140 ,7,0,0.,24.0,0.,24.0
1979-07-27 17:29:55.140 ,7,1,0.,24.0,0.,24.0
1979-07-27 17:30:19.140 ,7,0,0.,24.0,0.,24.0
1979-07-27 17:30:43.140 ,6,1,0.,24.0,0.,24.0
1979-07-27 17:31:07.140 ,6,0,0.,24.0,0.,24.0
1979-07-27 17:31:31.140 ,5,1,0.,24.0,0.,24.0
1979-07-27 17:31:55.140 ,5,0,0.,24.0,0.,24.0
1979-07-27 17:32:19.140 ,4,1,0.,24.0,0.,24.0
1979-07-27 17:32:43.140 ,4,0,0.,24.0,0.,24.0
1979-07-27 17:33:07.140 ,3,1,0.,24.0,0.,24.0
1979-07-27 17:33:31.140 ,3,0,0.,24.0,0.,24.0
1979-07-27 17:33:55.140 ,2,1,0.,24.0,0.,24.0
1979-07-27 17:34:19.140 ,2,0,0.,24.0,0.,24.0
1979-07-27 17:34:43.140 ,1,1,0.,24.0,0.,24.0
1979-07-27 17:35:07.140 ,1,0,0.,24.0,0.,24.0
1979-07-27 17:35:31.140 ,0,1,0.,24.0,0.,24.0
1979-07-27 17:35:55.140 ,0,0,0.,24.0,0.,24.0
1979-07-27 17:36:19.140 ,0,1,0.,24.0,0.,24.0
1979-07-27 17:36:43.140 ,0,0,0.,24.0,0.,24.0
1979-07-27 17:37:07.140 ,1,1,0.,24.0,0.,24.0
1979-07-27 17:37:31.140 ,1,0,0.,24.0,0.,24.0
1979-07-27 17:37:55.140 ,2,1,0.,24.0,0.,24.0
1979-07-27 17:38:19.140 ,2,0,0.,24.0,0.,24.0
1979-07-27 17:38:43.140 ,3,1,0.,24.0,0.,24.0
1979-07-27 17:39:07.140 ,3,0,0.,24.0,0.,24.0
1979-07-27 17:39:31.140 ,4,1,0.,24.0,0.,24.0
1979-07-27 17:39:55.140 ,4,0,0.,24.0,0.,24.0
1979-07-27 17:40:19.140 ,5,1,0.,24.0,0.,24.0
1979-07-27 17:40:43.140 ,5,0,1.,24.0,0.,24.0
1979-07-27 17:41:07.140 ,6,1,0.,24.0,0.,24.0
1979-07-27 17:41:31.140 ,6,0,0.,24.0,0.,24.0
1979-07-27 17:41:55.140 ,7,1,0.,24.0,0.,24.0
1979-07-27 17:42:19.140 ,7,0,0.,24.0,0.,24.0
1979-07-27 17:42:43.140 ,7,1,0.,24.0,0.,24.0
1979-07-27 17:43:07.140 ,7,0,0.,24.0,0.,24.0
1979-07-27 17:43:31.140 ,6,1,0.,24.0,0.,24.0
1979-07-27 17:43:55.140 ,6,0,0.,24.0,0.,24.0
1979-07-27 17:44:19.140 ,5,1,0.,24.0,0.,24.0
1979-07-27 17:44:43.140 ,5,0,0.,24.0,0.,24.0
1979-07-27 17:45:07.140 ,4,1,0.,24.0,0.,24.0
1979-07-27 17:45:31.140 ,4,0,0.,24.0,0.,24.0
1979-07-27 17:45:55.140 ,3,1,0.,24.0,0.,24.0
1979-07-27 17:46:19.140 ,3,0,0.,24.0,0.,24.0
1979-07-27 17:46:43.140 ,2,1,0.,24.0,0.,24.0
1979-07-27 17:47:07.140 ,2,0,0.,24.0,0.,24.0
1979-07-27 17:47:31.140 ,1,1,0.,24.0,0.,24.0
1979-07-27 17:47:55.140 ,1,0,0.,24.0,0.,24.0
1979-07-27 17:48:19.140 ,0,1,0.,24.0,0.,24.0
1979-07-27 17:48:43.140 ,0,0,0.,24.0,0.,24.0
1979-07-27 17:49:07.140 ,0,1,0.,24.0,0.,24.0
1979-07-27 17:49:31.140 ,0,0,0.,24.0,0.,24.0
1979-07-27 17:49:55.140 ,1,1,0.,24.0,0.,24.0
1979-07-27 17:50:19.140 ,1,0,0.,24.0,0.,24.0
1979-07-27 17:50:43.140 ,2,1,0.,24.0,0.,24.0
1979-07-27 17:51:07.140 ,2,0,0.,24.0,0.,24.0
1979-07-27 17:51:31.140 ,3,1,0.,24.0,0.,24.0
1979-07-27 17:51:55.140 ,3,0,0.,24.0,0.,24.0
1979-07-27 17:52:43.140 ,4,0,0.,24.0,0.,24.0
1979-07-27 17:53:07.140 ,5,1,0.,24.0,0.,24.0
1979-07-27 17:53:31.140 ,5,0,0.,24.0,0.,24.0
1979-07-27 17:53:55.140 ,6,1,0.,24.0,0.,24.0
1979-07-27 17:54:19.140 ,6,0,0.,24.0,0.,24.0
1979-07-27 17:54:43.140 ,7,0,0.,24.0,0.,24.0
1979-07-27 17:55:07.140 ,7,0,0.,24.0,0.,24.0
1979-07-27 17:55:31.140 ,3,1,0.,24.0,0.,24.0
1979-07-27 17:55:55.140 ,0,1,0.,24.0,0.,24.0
1979-07-27 17:56:19.140 ,4,1,0.,24.0,0.,24.0
1979-07-27 17:56:43.140 ,7,1,0.,24.0,0.,24.0
1979-07-27 17:57:07.140 ,3,1,0.,24.0,0.,24.0
1979-07-27 17:57:31.140 ,0,1,0.,24.0,0.,24.0
1979-07-27 17:57:55.140 ,4,1,0.,24.0,0.,24.0
1979-07-27 17:58:19.140 ,7,1,0.,24.0,0.,24.0
1979-07-27 17:58:43.140 ,3,1,0.,24.0,0.,24.0
1979-07-27 17:59:07.140 ,0,1,0.,24.0,0.,24.0
1979-07-27 17:59:31.140 ,4,1,0.,24.0,0.,24.0
1979-07-27 17:59:55.140 ,7,1,0.,24.0,0.,24.0
1979-07-27 18:00:19.140 ,3,1,0.,24.0,0.,24.0
